Waarnemingen

Advertentie
Mijn weer
La Coruna/Alvedro, Spanje (8002): temperatuur & dauwpunt: 13.01.2020 09:00:00 - 19.01.2020 09:00:00 (CET)La Coruna/Alvedro, Spanje (8002): windsnelheid & windstoten: 13.01.2020 09:00:00 - 19.01.2020 09:00:00 (CET)La Coruna/Alvedro, Spanje (8002): windrichting: 13.01.2020 09:00:00 - 19.01.2020 09:00:00 (CET)La Coruna/Alvedro, Spanje (8002): luchtdruk: 13.01.2020 09:00:00 - 19.01.2020 09:00:00 (CET)La Coruna/Alvedro, Spanje (8002): zicht: 13.01.2020 09:00:00 - 19.01.2020 09:00:00 (CET)
Datum & Tijd tt [°C] td [°C] ff [km/u] ff [kn] fx [km/u] fx [kn] dd ppp [hPa] vv [km]
19.01.2020 09:00:00 8,6 4,0 21 11 - - ONO - 10
19.01.2020 08:00:00 8,9 5,0 22 12 - - NO - 17
19.01.2020 07:00:00 9,0 6,0 22 12 - - NO - 25
19.01.2020 06:00:00 9,6 6,0 18 10 - - NO - 10
19.01.2020 05:00:00 9,6 7,0 22 12 - - NNO - 10
19.01.2020 04:00:00 9,8 7,0 21 11 - - NO - 30
19.01.2020 03:00:00 9,9 9,0 15 8 - - NNO - 9
19.01.2020 02:00:00 10,5 9,0 18 10 - - NNO - 10
19.01.2020 01:00:00 10,1 10,0 18 10 - - N - 8
19.01.2020 00:00:00 10,4 8,0 18 10 - - N - 10
18.01.2020 23:00:00 10,5 8,0 15 8 - - N - 16
18.01.2020 22:00:00 10,3 9,0 11 6 - - N - 10
18.01.2020 21:00:00 10,5 9,0 15 8 - - N - 5
18.01.2020 20:00:00 9,8 10,0 8 4 - - N - 2,0
18.01.2020 19:00:00 9,8 9,0 11 6 - - W - 4,5
18.01.2020 18:00:00 10,5 8,0 16 9 - - WNW - 10
18.01.2020 17:00:00 11,1 9,0 16 9 - - WNW - 12
18.01.2020 16:00:00 9,3 8,0 31 17 - - WNW - 10
18.01.2020 15:00:00 13,2 7,0 22 12 - - NW - 10
18.01.2020 14:00:00 12,6 8,0 24 13 - - WNW - 10
18.01.2020 13:00:00 11,1 10,0 31 17 - - NW - 5
18.01.2020 12:00:00 12,8 12,0 26 14 - - WNW - 10
18.01.2020 11:00:00 12,5 11,0 13 7 - - ZZW - 10
18.01.2020 10:00:00 11,7 10,0 18 10 - - Z - 30
18.01.2020 09:00:00 11,0 8,0 21 11 - - Z - 10
18.01.2020 08:00:00 10,7 7,0 28 15 - - Z - 30
18.01.2020 07:00:00 10,9 6,0 26 14 - - Z - 30
18.01.2020 06:00:00 10,5 5,0 22 12 - - ZZO - 10
18.01.2020 05:00:00 10,0 5,0 22 12 - - ZZO - 10
18.01.2020 04:00:00 10,0 4,0 26 14 - - Z - 10
18.01.2020 03:00:00 10,1 4,0 16 9 - - ZZO - 10
18.01.2020 02:00:00 9,8 5,0 16 9 - - ZZO - 30
18.01.2020 01:00:00 9,6 5,0 11 6 - - Z - 10
18.01.2020 00:00:00 8,9 6,0 22 12 - - ZZO - 10
17.01.2020 23:00:00 8,4 6,0 4 2 - - ZO - 26
17.01.2020 22:00:00 8,3 6,0 11 6 - - ZZO - 10
17.01.2020 21:00:00 8,4 6,0 9 5 - - ZZO - 21
17.01.2020 20:00:00 8,9 6,0 8 4 - - Z - 17
17.01.2020 19:00:00 9,0 6,0 9 5 - - ZZW - 30
17.01.2020 18:00:00 9,4 7,0 5 3 - - ZZO - 10
17.01.2020 17:00:00 10,2 7,0 5 3 - - Z - 10
17.01.2020 16:00:00 10,3 6,0 9 5 - - W - 30
17.01.2020 15:00:00 11,6 - 11 6 - - W - 30
17.01.2020 14:00:00 11,6 6,0 11 6 - - WZW - 10
17.01.2020 13:00:00 11,5 6,4 13 7 - - ZW 1031,6 30
17.01.2020 12:00:00 9,2 5,4 13 7 - - ZZW 1031,7 30
17.01.2020 11:00:00 7,3 4,9 15 8 - - ZZW 1030,8 30
17.01.2020 10:00:00 6,8 4,5 9 5 - - W 1029,9 30
17.01.2020 09:00:00 7,5 4,3 13 7 - - WZW 1028,9 10
17.01.2020 08:00:00 8,1 4,7 13 7 - - W 1028,2 16
17.01.2020 07:00:00 8,1 5,4 15 8 - - WZW 1027,0 30
17.01.2020 06:00:00 7,9 5,4 16 9 - - WZW 1026,2 30
17.01.2020 05:00:00 8,0 5,1 11 6 - - ZW 1024,6 17
17.01.2020 04:00:00 9,1 5,8 15 8 - - WZW 1024,3 10
17.01.2020 03:00:00 8,6 6,0 9 5 - - ZZW 1023,6 10
17.01.2020 02:00:00 8,6 5,5 13 7 - - ZZW 1022,7 30
17.01.2020 01:00:00 8,7 5,8 8 4 - - Z 1022,3 30
17.01.2020 00:00:00 8,5 6,6 18 10 - - ZW 1021,6 10
16.01.2020 23:00:00 10,1 7,3 15 8 - - W 1020,9 8
16.01.2020 22:00:00 10,2 7,8 18 10 - - ZZW 1019,5 30
16.01.2020 21:00:00 10,5 8,1 18 10 - - ZZW 1019,0 30
16.01.2020 20:00:00 9,9 7,7 15 8 - - ZZW 1018,3 30
16.01.2020 19:00:00 10,0 7,6 24 13 - - ZW 1016,9 10
16.01.2020 18:00:00 10,3 8,0 28 15 - - ZW 1016,2 30
16.01.2020 17:00:00 10,6 8,9 16 9 - - Z 1015,2 4,5
16.01.2020 16:00:00 11,6 10,2 5 3 - - - 1014,8 0,7
16.01.2020 15:00:00 11,9 10,3 18 10 - - ZZW 1013,5 4,0
16.01.2020 14:00:00 11,3 9,7 22 12 - - ZZW 1015,0 7
16.01.2020 13:00:00 12,6 10,0 26 14 - - ZZW 1015,0 7
16.01.2020 12:00:00 14,3 11,7 31 17 - - ZZW 1013,5 7
16.01.2020 11:00:00 14,2 11,7 29 16 - - ZZW 1014,3 3,0
16.01.2020 10:00:00 13,9 11,8 34 18 - - Z 1014,1 2,7
16.01.2020 09:00:00 15,6 10,6 39 21 78 42 ZZW 1013,7 16
16.01.2020 08:00:00 15,1 11,1 37 20 76 41 Z 1013,2 30
16.01.2020 07:00:00 15,3 11,0 29 16 - - Z 1013,0 10
16.01.2020 06:00:00 15,7 11,3 29 16 76 41 ZZW 1013,2 30
16.01.2020 05:00:00 15,3 11,4 44 24 81 44 ZZW 1014,0 23
16.01.2020 04:00:00 14,6 12,6 29 16 - - Z 1014,9 2,1
16.01.2020 03:00:00 13,7 11,2 22 12 - - Z 1014,8 8
16.01.2020 02:00:00 14,2 8,8 22 12 - - Z 1015,8 30
16.01.2020 01:00:00 14,3 8,2 31 17 - - Z 1016,1 30
16.01.2020 00:00:00 13,6 10,2 11 6 - - ZZO 1017,3 27
15.01.2020 23:00:00 10,6 7,7 2 1 - - NNW 1017,4 30
15.01.2020 22:00:00 10,0 7,4 8 4 - - Z 1017,7 26
15.01.2020 21:00:00 10,5 7,7 2 1 - - - 1018,4 10
15.01.2020 20:00:00 11,2 7,3 5 3 - - Z 1018,9 10
15.01.2020 19:00:00 11,5 6,8 5 3 - - Z 1018,9 30
15.01.2020 18:00:00 12,9 6,6 11 6 - - Z 1018,9 30
15.01.2020 17:00:00 14,1 6,9 16 9 - - ZW 1018,6 10
15.01.2020 16:00:00 14,5 6,5 18 10 - - ZZW 1018,5 10
15.01.2020 15:00:00 14,6 6,8 18 10 - - ZW 1018,7 30
15.01.2020 14:00:00 13,8 6,0 9 5 - - WZW 1018,9 10
15.01.2020 13:00:00 13,1 6,2 9 5 - - ZW 1019,1 10
15.01.2020 12:00:00 12,5 7,2 11 6 - - ZW 1019,4 26
15.01.2020 11:00:00 11,2 7,8 9 5 - - ZW 1018,9 10
15.01.2020 10:00:00 8,2 7,3 9 5 - - ZW 1017,6 13
15.01.2020 09:00:00 9,6 7,6 5 3 - - WZW 1016,3 10
15.01.2020 08:00:00 10,2 8,1 9 5 - - WNW 1014,5 22
15.01.2020 07:00:00 10,7 9,3 15 8 - - WNW 1012,7 16
15.01.2020 06:00:00 11,0 9,5 15 8 - - WNW 1011,2 7
15.01.2020 05:00:00 12,9 9,7 16 9 - - WZW 1009,8 10
15.01.2020 04:00:00 12,6 9,8 37 20 - - ZW 1008,1 30
15.01.2020 03:00:00 13,2 10,8 34 18 80 43 ZZW 1007,0 4,4
15.01.2020 02:00:00 14,9 9,2 42 23 81 44 ZZW 1006,5 27
15.01.2020 01:00:00 14,5 9,9 48 26 - - ZZW 1007,5 23
15.01.2020 00:00:00 15,0 9,4 48 26 - - ZZW 1007,7 30
14.01.2020 23:00:00 14,3 9,3 39 21 - - Z 1007,8 10
14.01.2020 22:00:00 13,9 9,4 35 19 - - ZZW 1009,0 10
14.01.2020 21:00:00 13,1 9,3 31 17 - - Z 1009,4 10
14.01.2020 20:00:00 13,6 9,1 39 21 76 41 ZZW 1009,7 10
14.01.2020 19:00:00 14,4 8,8 39 21 - - ZZW 1010,1 10
14.01.2020 18:00:00 14,2 9,2 34 18 76 41 ZZW 1010,0 22
14.01.2020 17:00:00 15,4 8,7 44 24 87 47 ZZW 1009,8 30
14.01.2020 16:00:00 15,8 9,0 46 25 - - ZZW 1009,8 10
14.01.2020 15:00:00 15,5 8,4 42 23 81 44 ZZW 1010,2 30
14.01.2020 14:00:00 14,9 8,6 37 20 - - Z 1010,4 30
14.01.2020 13:00:00 14,2 8,7 35 19 - - ZZW 1011,8 10
14.01.2020 12:00:00 13,5 8,4 35 19 - - Z 1012,7 30
14.01.2020 11:00:00 13,1 8,6 34 18 - - Z 1012,4 30
14.01.2020 10:00:00 13,0 8,7 31 17 - - Z 1012,4 10
14.01.2020 09:00:00 13,1 9,0 34 18 - - Z 1012,3 10
14.01.2020 08:00:00 12,9 9,2 34 18 - - ZZW 1012,1 10
14.01.2020 07:00:00 12,5 9,1 31 17 - - Z 1011,7 30
14.01.2020 06:00:00 12,2 9,2 31 17 - - ZZW 1011,9 19
14.01.2020 05:00:00 12,3 9,0 34 18 - - ZZW 1012,1 10
14.01.2020 04:00:00 12,4 9,2 29 16 - - ZZW 1012,1 10
14.01.2020 03:00:00 12,5 9,1 29 16 - - ZZW 1012,5 10
14.01.2020 02:00:00 12,4 9,4 35 19 - - ZZW 1013,2 30
14.01.2020 01:00:00 12,4 9,2 35 19 - - ZZW 1013,8 10
14.01.2020 00:00:00 11,5 9,2 26 14 - - Z 1013,9 11
13.01.2020 23:00:00 11,3 9,2 28 15 - - ZZW 1014,4 10
13.01.2020 22:00:00 10,9 8,6 24 13 - - Z 1014,8 10
13.01.2020 21:00:00 10,6 8,1 31 17 - - Z 1015,1 10
13.01.2020 20:00:00 10,7 7,4 31 17 - - Z 1015,4 30
13.01.2020 19:00:00 10,4 7,5 28 15 - - Z 1015,6 15
13.01.2020 18:00:00 10,7 6,7 41 22 - - Z 1015,4 30
13.01.2020 17:00:00 11,4 6,5 31 17 - - Z 1015,6 29
13.01.2020 16:00:00 12,2 6,2 35 19 - - Z 1016,4 30
13.01.2020 15:00:00 12,5 6,1 39 21 - - ZZW 1016,6 26
13.01.2020 14:00:00 11,6 5,7 37 20 - - ZZW 1017,8 30
13.01.2020 13:00:00 11,7 6,6 34 18 - - ZZW 1019,0 30
13.01.2020 12:00:00 10,7 6,1 34 18 - - Z 1019,8 30
13.01.2020 11:00:00 10,6 6,2 35 19 - - ZZW 1020,7 10
13.01.2020 10:00:00 9,6 5,8 28 15 - - ZZW 1021,4 10
13.01.2020 09:00:00 9,4 6,1 31 17 - - ZZW 1021,5 30

tt = temperatuur
td = dauwpunt
ff = windsnelheid
fx = windstoten
dd = windrichting
ppp = luchtdruk
vv = zicht

Weerstations in de omgeving